www.pogodaiklimat.ru

Погода и климат >> Архив погоды >> Россия >> Хабаровский край >> Урми


ПОГОДА в Урми

  • Прогноз погоды в Урми
  • Монитор погоды в Урми

АРХИВ ПОГОДЫ в Урми

Время (UTC), дата Ветер
(напр.,м/с)
 
Видим.   Явления Облачность Т
(С)
Тd
(С)
f
(%)
Тe
(С)
Тes
(С)
Комфортность P
(гПа)
Po
(гПа)
Тmin
(С)
Tmax
(С)
R
(мм)
R24
(мм)
S
(см)
09 11.02 З 1 50 км ясно -19.9 -31.7 34 -23 -23 1025.2 998.3 -15.5
12 11.02 З 1 50 км ясно -22.2 -30.6 46 -25 -25 1025.6 998.3
15 11.02 З 2 50 км ясно -21.2 -30.5 43 -27 -27 1025.1 998.0
18 11.02 З 2 50 км ясно -22.7 -30.8 48 -29 -29 1025.7 998.4
21 11.02 З 1 50 км ясно -28.4 -33.0 65 -32 -32 опасность
обморожения
1026.0 998.1 -28.9 25
00 12.02 СВ 1 50 км ясно -25.4 -31.5 57 -29 -27 1026.4 998.8
03 12.02 З 2 50 км 1/0
[Ac lent]
-15.2 -29.2 29 -20 -16 1024.6 998.2
06 12.02 СЗ 3 50 км 9/0
[Ci fib]
-13.5 -28.7 27 -20 -18 1023.6 997.4
09 12.02 СЗ 1 50 км ясно -16.6 -29.1 33 -19 -19 1025.5 998.9 -13.4
12 12.02 З 1 50 км ясно -18.0 -27.4 44 -21 -21 1026.3 999.5
15 12.02 З 1 50 км ясно -20.7 -27.8 53 -24 -24 1026.5 999.5
18 12.02 СЗ 3 50 км ясно -19.6 -28.2 46 -27 -27 1025.9 998.9
21 12.02 штиль 0 50 км ясно -27.3 -31.0 71 -27 -27 1026.8 999.0 -27.3 25
00 13.02 штиль 0 50 км ясно -25.3 -29.0 71 -25 -23 1027.2 999.6 -29.1
03 13.02 В 1 50 км ясно -12.8 -25.7 33 -15 -9 1024.4 998.2
06 13.02 З 3 50 км ясно -9.4 -24.3 29 -15 -13 1022.5 996.7
09 13.02 З 2 50 км ясно -11.9 -24.7 34 -16 -16 1023.6 997.5 -9.2
12 13.02 З 2 50 км ясно -13.6 -24.5 39 -18 -18 1025.0 998.7
15 13.02 З 1 50 км ясно -16.6 -25.0 48 -19 -19 1026.0 999.4
18 13.02 штиль 0 50 км ясно -23.2 -26.4 75 -23 -23 1027.0 999.6
21 13.02 штиль 0 50 км ясно -27.1 -30.0 76 -27 -27 1027.4 999.6 -27.2 25
00 14.02 штиль 0 50 км ясно -24.3 -27.1 78 -24 -22 1027.3 999.8 -28.9
03 14.02 В 1 50 км 1/0
[Ci fib]
-9.9 -23.2 33 -12 -6 1023.6 997.7
06 14.02 СЗ 3 50 км ясно -6.1 -24.7 21 -11 -9 1020.6 995.1
09 14.02 СЗ 3 50 км ясно -8.5 -24.5 26 -14 -14 1020.7 995.0 -5.8
12 14.02 З 2 50 км ясно -15.7 -24.0 49 -21 -21 1022.1 995.6
15 14.02 З 2 50 км ясно -14.0 -25.8 36 -19 -19 1021.3 995.1
18 14.02 СЗ 1 50 км ясно -15.9 -26.0 41 -19 -19 1020.5 994.0
21 14.02 СЗ 1 50 км ясно -23.0 -27.5 67 -26 -26 1020.4 993.2 -23.0 25
00 15.02 В 1 50 км ясно -21.4 -26.2 65 -25 -23 1019.8 992.8 -25.3
03 15.02 СВ 1 50 км ясно -8.2 -22.9 30 -10 -4 1015.9 990.3
06 15.02 З 3
{11}
50 км ясно -5.9 -23.4 24 -11 -9 1013.3 988.1
09 15.02 СЗ 2 50 км ясно -8.5 -23.8 28 -12 -12 1013.0 987.5 -5.9
12 15.02 З 2 50 км ясно -10.6 -23.4 34 -15 -15 1013.5 987.8
15 15.02 З 2 50 км 1/0
[Ci fib]
-14.9 -23.1 50 -20 -20 1014.8 988.6
18 15.02 З 2 50 км 3/0
[Ci fib]
-14.1 -22.9 47 -19 -19 1013.9 987.9
21 15.02 С 1 50 км ясно -21.2 -24.3 76 -24 -24 1013.8 987.0 -21.2 25
00 16.02 штиль 0 50 км 10/0
[Ac lent Ci fib]
-19.8 -23.2 74 -20 -18 1012.5 985.9 -23.3
03 16.02 З 3 50 км 3/0
[Ac lent Ci fib]
-6.8 -18.8 38 -12 -8 1008.5 983.3
06 16.02 З 4
{13}
50 км 1/0
[Ci fib]
-4.6 -18.2 34 -10 -9 1005.9 980.9
09 16.02 СЗ 2
{10}
50 км 1/0
[Ci fib]
-6.4 -18.4 38 -10 -10 1005.5 980.4 -4.4
12 16.02 СЗ 3
{12}
50 км 3/0
[Ci fib]
-7.5 -17.8 43 -13 -13 1005.5 980.3
15 16.02 З 2 50 км 10/0
[Ci sp]
-7.5 -16.8 47 -11 -11 1004.7 979.5
18 16.02 З 1 50 км 10/0
[Ci fib]
-9.2 -17.0 53 -11 -11 1005.0 979.6
21 16.02 штиль 0 50 км ясно -15.2 -19.0 73 -15 -15 1005.8 979.8 -15.2 25
00 17.02 штиль 0 50 км ясно -11.8 -17.0 65 -12 -9 1005.7 980.1 -18.0
03 17.02 СЗ 3 50 км 1/1 600 м
[Cu hum]
-2.1 -16.7 32 -6 -2 1003.8 979.2
06 17.02 СЗ 4
{14}
50 км 10/9 600 м
[Cb cap Ci fib]
-2.0 -16.7 31 -7 -7 1003.4 978.7
09 17.02 СЗ 2
{12}
50 км {ливн. осадки} 1/1 600 м
[Cu hum]
-4.5 -18.2 33 -8 -8 1007.7 982.7 -1.6 0.0
12 17.02 штиль 0 50 км {ливн. осадки} ясно -11.6 -17.7 61 -12 -12 1010.5 984.8
15 17.02 З 1 50 км ясно -14.8 -18.4 74 -17 -17 1012.2 986.1
18 17.02 З 2 50 км ясно -17.2 -20.2 77 -23 -23 1013.5 987.1
21 17.02 З 1 50 км ясно -21.5 -23.8 82 -25 -25 1015.4 988.5 -21.5 24
00 18.02 штиль 0 50 км 3/0
[Ci fib]
-15.9 -19.3 75 -16 -14 1015.9 989.6 -22.1
03 18.02 С 1 50 км 8/0
[Ci fib]
-1.6 -16.4 31 -3 +3 1013.4 988.5
06 18.02 Ю 1 50 км 8/0
[Ci sp]
+1.4 -16.8 24 +1 +3 1011.1 986.6

 

Местоположение метеостанции Урми (Хабаровский край, Россия): широта 49.40 долгота 133.20 высота над уровнем моря 201 м.

В архиве по умолчанию представлена погода в Урми за последнюю неделю. Архивные данные за месяц целиком и за предыдущие месяцы, начиная с января 2011 года, Вы можете получить, выбрав интересующий диапазон дат из раскрывающегося списка и нажав кнопку "Ввод!".


*Определитесь, кто Вы:
робот инопланетянин человек

Внимание! Время в таблицах - всемирное. Для получения местного времени необходимо прибавить поправку, которая равна 10 ч.

Смотрите также архив погоды в соседних городах и на ближайших метеорологических станциях:

Погода в Верховье Урми (Хабаровский край, Россия) (75 км)
Погода в Биробиджане (Еврейская автономная область, Россия) (78 км)
Погода в Смидовиче (Еврейская автономная область, Россия) (99 км)
Погода в Сутуре (Хабаровский край, Россия) (109 км)
Погода в Куре (Хабаровский край, Россия) (117 км)
Погода в Хабаровск Центре (Еврейская автономная область, Россия) (121 км)
Погода в Литовко (Хабаровский край, Россия) (139 км)
Погода на Хабаровск Мосту (Хабаровский край, Россия) (164 км)
Погода в Облучье (Еврейская автономная область, Россия) (166 км)
Погода в Хабаровске АМС (Хабаровский край, Россия) (167 км)

Пояснения к столбцам:

Ветер - указаны скорость ветра в м/с - средняя за 10 мин, порывы в срок и между сроками (в фигурных скобках) и направление, откуда дует ветер: С - северный, СВ - северо-восточный, В - восточный, ЮВ - юго-восточный, Ю - южный, ЮЗ - юго-западный, З - западный, СЗ - северо-западный.
Видимость - горизонтальная дальность видимости в метрах или километрах. При видимости от 1 до 10 км при отсутствии осадков обычно наблюдается дымка, при ухудшении видимости до 1 км и менее - туман. В сухую погоду видимость может ухудшаться дымом, пылью или мглою.
Явления - указаны атмосферные явления, наблюдавшиеся в срок или в последний час перед сроком; фигурными скобками обозначены явления, наблюдавшиеся между сроками (за 1-3 часа до срока); квадратными скобками обозначены град или гололедные отложения с указанием их диаметра в мм.
Облачность - указаны через наклонную черту общая и нижняя облачность в баллах и высота нижней границы облаков в метрах; квадратными скобками обозначены формы облаков: Ci - перистые, Cs - перисто-слоистые, Cc - перисто-кучевые, Ac - высококучевые, As - высокослоистые, Sc - слоисто-кучевые, Ns - слоисто-дождевые, Cu - кучевые, Cb - кучево-дождевые. Подробнее классификацию облаков см. в Атласе облаков (PDF).
T - Температура воздуха - температура, измеренная на высоте 2 м над землей.
Td - Температура точки росы - температура, при понижении до которой содержащийся в воздухе водяной пар достигнет насыщения.
f - Относительная влажность воздуха - влажноcть воздуха, измеренная на высоте 2 м над землей.
Te - Эффективная температура - температура, которую ощущает одетый по сезону человек в тени. Характеристика душности погоды. При расчете учитывается влияние влажности воздуха и скорости ветра на теплоощущения человека.
Tes - Эффективная температура на солнце - температура, которую ощущает человек, с поправкой на солнечный нагрев. Характеристика знойности погоды. Зависит от высоты солнца над горизонтом, облачности и скорости ветра. Ночью, в пасмурную погоду, а также при ветре 12 м/с и более поправка равна нулю.
P - Атмосферное давление - приведенное к уровню моря атмосферное давление.
Po - Атмосферное давление - измеренное на уровне метеостанции атмосферное давление.
Tmin - Минимальная температура - минимум температуры воздуха на высоте 2 м над землей.
Tmax - Максимальная температура - максимум температуры воздуха на высоте 2 м над землей.
R - Количество осадков - Количество выпавших осадков за период времени, мм. При наведении курсора мыши на число - период времени, за который выпало указанное количество осадков.
R24 - Количество осадков - Количество выпавших осадков за 24 часа, мм.
S - Снежный покров - Высота снежного покрова, см. При наведении курсора мыши на число - состояние снежного покрова и степень покрытия местности в баллах.